Weather History for EGPK - December, 2013

Change the Weather History Date:

Sunday, December 1, 2013

  Actual Average Record
Temperature  
Mean Temperature 48 °F -  
Max Temperature 51 °F 44 °F 57 °F (2006)
Min Temperature 46 °F 34 °F 19 °F (2010)
Degree Days  
Heating Degree Days 16    
Moisture  
Dew Point 44 °F    
Average Humidity 84    
Maximum Humidity 93    
Minimum Humidity 76    
Precipitation  
Precipitation 0.00 in - - ()
Sea Level Pressure  
Sea Level Pressure 30.51 in    
Wind  
Wind Speed 5 mph ()    
Max Wind Speed 14 mph    
Max Gust Speed -    
Visibility 6.2 miles    
Events      
Averages and records for this station are not official NWS values.
T = Trace of Precipitation, MM = Missing Value Source: Averaged Metar Reports

Daily Weather History Graph

Daily Weather History Graph

Search for Another Location

Airport or City:

Trip Planner

Search our weather history database for the weather conditions in past years. The results will help you decide how hot, cold, wet, or windy it might be!

Date:

Astronomy

Dec. 01, 2013 Rise Set
Actual Time 8:22 AM GMT 3:52 PM GMT
Civil Twilight 7:37 AM GMT 4:36 PM GMT
Nautical Twilight 6:50 AM GMT 5:23 PM GMT
Astronomical Twilight 6:06 AM GMT 6:08 PM GMT
Moon 6:07 AM GMT (12/1) 3:04 PM GMT (12/1)
Length of Visible Light 8h 58m
Length of Day
7h 29m
Waning Crescent, 3% of the Moon is Illuminated
Dec 1
Waning Crescent
Dec 3
New
Dec 9
First Quarter
Dec 17
Full
Dec 25
Last Quarter

Hourly Weather History & Observations

Time (GMT) Temp. Windchill Dew Point Humidity Pressure Visibility Wind Dir Wind Speed Gust Speed Precip Events Conditions
12:50 AM 48.2 °F - 44.6 °F 87% 30.42 in 6.2 mi West 9.2 mph - N/A   Scattered Clouds
1:50 AM 48.2 °F - 44.6 °F 87% 30.42 in 6.2 mi WNW 11.5 mph - N/A   Scattered Clouds
2:50 AM 48.2 °F - 46.4 °F 93% 30.42 in 6.2 mi West 5.8 mph - N/A   Mostly Cloudy
3:50 AM 50.0 °F - 46.4 °F 87% 30.42 in 6.2 mi West 8.1 mph - N/A   Mostly Cloudy
4:50 AM 50.0 °F - 44.6 °F 82% 30.42 in 6.2 mi West 11.5 mph - N/A   Mostly Cloudy
5:50 AM 48.2 °F - 44.6 °F 87% 30.42 in 6.2 mi WNW 13.8 mph - N/A   Scattered Clouds
6:20 AM 48.2 °F - 44.6 °F 87% 30.45 in 6.2 mi WNW 6.9 mph - N/A   Scattered Clouds
6:50 AM 48.2 °F - 44.6 °F 87% 30.45 in 6.2 mi WNW 5.8 mph - N/A   Scattered Clouds
7:20 AM 48.2 °F - 44.6 °F 87% 30.45 in 6.2 mi WNW 9.2 mph - N/A   Scattered Clouds
7:50 AM 48.2 °F - 44.6 °F 87% 30.48 in 6.2 mi WSW 4.6 mph - N/A   Scattered Clouds
8:20 AM 48.2 °F - 44.6 °F 87% 30.48 in 6.2 mi West 8.1 mph - N/A   Scattered Clouds
8:50 AM 48.2 °F - 44.6 °F 87% 30.48 in 6.2 mi Calm Calm - N/A   Scattered Clouds
9:20 AM 48.2 °F - 44.6 °F 87% 30.51 in 6.2 mi East 3.5 mph - N/A   Scattered Clouds
9:50 AM 50.0 °F - 46.4 °F 87% 30.51 in 6.2 mi WSW 4.6 mph - N/A   Scattered Clouds
10:20 AM 50.0 °F - 46.4 °F 87% 30.51 in 6.2 mi WNW 5.8 mph - N/A   Scattered Clouds
10:50 AM 50.0 °F - 46.4 °F 87% 30.51 in 6.2 mi WNW 8.1 mph - N/A   Scattered Clouds
11:20 AM 50.0 °F - 44.6 °F 82% 30.54 in 6.2 mi WSW 3.5 mph - N/A   Scattered Clouds
11:50 AM 50.0 °F - 44.6 °F 82% 30.54 in 6.2 mi West 3.5 mph - N/A   Scattered Clouds
12:20 PM 50.0 °F - 46.4 °F 87% 30.51 in 6.2 mi NNW 6.9 mph - N/A   Scattered Clouds
12:50 PM 51.8 °F - 44.6 °F 76% 30.51 in 6.2 mi NNW 4.6 mph - N/A   Scattered Clouds
1:20 PM 50.0 °F - 44.6 °F 82% 30.54 in 6.2 mi Calm Calm - N/A   Scattered Clouds
1:50 PM 50.0 °F - 44.6 °F 82% 30.51 in 6.2 mi NNW 4.6 mph - N/A   Scattered Clouds
2:20 PM 50.0 °F - 44.6 °F 82% 30.51 in 6.2 mi NNW 3.5 mph - N/A   Scattered Clouds
2:50 PM 50.0 °F - 42.8 °F 76% 30.51 in 6.2 mi NNW 3.5 mph - N/A   Mostly Cloudy
3:20 PM 48.2 °F - 42.8 °F 82% 30.54 in 6.2 mi Calm Calm - N/A   Mostly Cloudy
3:50 PM 48.2 °F - 42.8 °F 82% 30.54 in 6.2 mi Calm Calm - N/A   Mostly Cloudy
4:20 PM 48.2 °F - 42.8 °F 82% 30.54 in 6.2 mi Calm Calm - N/A   Mostly Cloudy
4:50 PM 46.4 °F - 42.8 °F 87% 30.54 in 6.2 mi Calm Calm - N/A   Mostly Cloudy
5:20 PM 46.4 °F - 42.8 °F 87% 30.54 in 6.2 mi Calm Calm - N/A   Mostly Cloudy
5:50 PM 46.4 °F - 42.8 °F 87% 30.54 in 6.2 mi Calm Calm - N/A   Mostly Cloudy
6:20 PM 46.4 °F - 42.8 °F 87% 30.54 in 6.2 mi Calm Calm - N/A   Mostly Cloudy
6:50 PM 46.4 °F - 42.8 °F 87% 30.54 in 6.2 mi NNW 2.3 mph - N/A   Mostly Cloudy
7:20 PM 46.4 °F - 42.8 °F 87% 30.57 in 6.2 mi ESE 2.3 mph - N/A   Mostly Cloudy
7:50 PM 46.4 °F - 42.8 °F 87% 30.57 in 6.2 mi ESE 2.3 mph - N/A   Mostly Cloudy
8:20 PM 46.4 °F 45.2 °F 41.0 °F 81% 30.57 in 6.2 mi South 3.5 mph - N/A   Mostly Cloudy
8:50 PM 46.4 °F 45.2 °F 41.0 °F 81% 30.57 in 6.2 mi Variable 3.5 mph - N/A   Mostly Cloudy
9:20 PM 48.2 °F - 41.0 °F 76% 30.57 in 6.2 mi SSW 5.8 mph - N/A   Mostly Cloudy
9:50 PM 46.4 °F - 41.0 °F 81% 30.57 in 6.2 mi SE 2.3 mph - N/A   Mostly Cloudy
10:20 PM 46.4 °F 45.2 °F 41.0 °F 81% 30.57 in 6.2 mi SE 3.5 mph - N/A   Mostly Cloudy
10:50 PM 46.4 °F 45.2 °F 41.0 °F 81% 30.60 in 6.2 mi SSE 3.5 mph - N/A   Mostly Cloudy
11:20 PM 46.4 °F 44.3 °F 42.8 °F 87% 30.60 in 6.2 mi SE 4.6 mph - N/A   Mostly Cloudy
11:50 PM 46.4 °F 44.3 °F 41.0 °F 81% 30.57 in 6.2 mi SE 4.6 mph - N/A   Mostly Cloudy